1495368000.95,59899,16.94,74120.0,4.87,4.05,4.01,0,*76
1495368002.18,59900,16.94,74124.8,4.85,3.79,3.79,0,*71
1495368003.36,59901,16.94,74124.5,4.85,4.11,4.11,0,*70
1495368004.54,59902,16.94,74120.0,4.85,4.37,4.49,0,*7A
1495368005.79,59903,16.94,74130.3,4.87,4.59,4.59,0,*70
1495368006.96,59904,16.94,74126.3,4.85,4.19,4.15,0,*79
1495368008.15,59905,16.94,74122.5,4.85,3.89,3.81,0,*7C
1495368009.38,59906,16.94,74124.5,4.85,3.79,3.71,0,*7F
1495368010.58,59907,16.94,74124.8,4.81,3.85,3.79,0,*71
1495368011.78,59908,16.94,74128.8,4.81,3.79,3.85,0,*7E
1495368012.96,59909,16.94,74132.3,4.81,4.15,4.23,0,*79
1495368014.12,59910,16.94,74126.3,4.81,3.55,3.55,0,*74
1495368015.35,59911,16.94,74128.5,4.79,3.55,3.45,0,*73
1495368016.55,59912,16.94,74130.5,4.79,3.85,3.85,0,*71
1495368017.75,59913,16.94,74130.8,4.79,4.27,4.27,0,*70
1495368018.98,59914,16.94,74128.5,4.79,3.89,4.01,0,*70
1495368020.19,59915,16.94,74134.5,4.79,4.11,4.11,0,*76
1495368021.39,59916,16.94,74132.0,4.79,4.49,4.45,0,*79
1495368022.56,59917,16.94,74128.8,4.77,4.11,4.11,0,*7A
1495368023.76,59918,16.94,74126.8,4.79,4.33,4.27,0,*7E
1495368024.97,59919,16.94,74134.5,4.79,4.23,4.23,0,*7A
1495368026.17,59920,16.94,74136.0,4.79,4.45,4.49,0,*7C
1495368027.37,59921,16.94,74132.0,4.79,4.23,4.27,0,*75
1495368028.63,59922,16.94,74132.8,4.79,4.67,4.71,0,*75
1495368029.89,59923,16.94,74136.0,4.79,4.71,4.79,0,*7B
1495368031.1,59924,16.94,74134.8,4.79,4.37,4.37,0,*74
1495368032.28,59925,16.94,74134.8,4.81,3.89,3.85,0,*7E
1495368033.5,59926,16.94,74136.3,4.79,3.55,3.67,0,*77
1495368034.71,59927,16.94,74136.3,4.79,4.37,4.45,0,*72
1495368035.92,59928,16.94,74140.5,4.79,4.23,4.23,0,*78
1495368037.17,59929,16.94,74138.8,4.79,3.45,3.45,0,*79
1495368038.4,59930,16.94,74132.8,4.79,3.89,4.01,0,*76
1495368039.61,59931,16.94,74130.5,4.75,4.37,4.41,0,*7D
1495368040.79,59932,16.94,74126.0,4.77,3.85,3.85,0,*7D
1495368042.02,59933,16.94,74134.3,4.77,3.37,3.37,0,*7C
1495368043.25,59934,16.94,74130.0,4.75,3.71,3.93,0,*75
1495368044.46,59935,16.94,74130.5,4.77,4.31,4.33,0,*78
1495368045.68,59936,16.94,74128.5,4.77,4.31,4.33,0,*7B
1495368046.88,59937,16.94,74132.8,4.75,4.41,4.41,0,*7A
1495368048.09,59938,16.94,74134.0,4.77,4.57,4.67,0,*74
1495368049.32,59939,16.94,74132.8,4.77,4.67,4.75,0,*75
1495368050.56,59940,16.94,74128.5,4.77,4.31,4.31,0,*78
1495368051.82,59941,16.94,74128.0,4.79,4.59,4.59,0,*77
1495368053.02,59942,16.94,74124.8,4.79,4.15,4.23,0,*71
1495368054.21,59943,16.94,74128.3,4.77,3.89,3.93,0,*70
1495368055.39,59944,16.94,74124.8,4.77,3.93,3.93,0,*7C
1495368056.58,59945,16.94,74126.8,4.77,4.41,4.41,0,*7D
1495368057.76,59946,16.94,74132.8,4.77,4.23,4.33,0,*7F
1495368058.94,59947,16.94,74120.0,4.77,4.19,4.23,0,*76
1495368060.17,59948,16.94,74122.3,4.77,4.63,4.63,0,*70
1495368061.36,59949,16.94,74124.3,4.77,4.33,4.33,0,*71
1495368062.61,59950,16.94,74124.0,4.75,4.01,4.05,0,*7F
1495368063.81,59951,16.94,74128.5,4.77,4.19,4.31,0,*72
1495368065.0,59952,16.94,74126.0,4.77,4.23,4.33,0,*7A
1495368066.21,59953,16.94,74124.0,4.75,4.27,4.37,0,*79
1495368067.41,59954,16.94,74124.8,4.75,4.07,4.15,0,*7C
1495368068.61,59955,16.94,74124.8,4.75,4.19,4.27,0,*73
1495368069.82,59956,16.94,74126.8,4.75,4.41,4.53,0,*7E
1495368071.0,59957,16.94,74120.8,4.77,4.41,4.45,0,*7A
1495368072.26,59958,16.94,74114.0,4.79,4.59,4.71,0,*75
1495368073.47,59959,16.94,74118.8,4.77,4.57,4.63,0,*77
1495368074.67,59960,16.94,74120.3,4.77,4.23,4.31,0,*79
1495368075.93,59961,16.94,74118.3,4.75,4.05,4.01,0,*7D
1495368077.17,59962,16.94,74120.3,4.77,3.75,3.75,0,*78
1495368078.42,59963,16.94,74114.3,4.75,3.67,3.67,0,*7B
1495368079.6,59964,16.94,74120.8,4.77,3.93,3.85,0,*79
1495368080.81,59965,16.94,74128.3,4.75,3.93,3.93,0,*7D
1495368082.02,59966,16.94,74126.8,4.75,3.89,3.89,0,*7E
1495368083.23,59967,16.94,74128.0,4.75,3.89,3.89,0,*7F
1495368084.43,59968,16.94,74118.3,4.75,4.49,4.49,0,*70
1495368085.63,59969,16.94,74114.8,4.75,4.41,4.49,0,*79
1495368086.83,59970,16.94,74112.3,4.75,4.15,4.19,0,*75
1495368088.04,59971,16.94,74122.0,4.75,4.07,4.07,0,*78
1495368089.24,59972,16.94,74124.5,4.75,4.41,4.41,0,*7B
1495368090.5,59973,16.94,74128.3,4.75,4.59,4.63,0,*73
1495368091.76,59974,16.94,74122.8,4.75,4.75,4.79,0,*71
1495368092.97,59975,16.94,74120.0,4.77,4.31,4.23,0,*7D
1495368094.17,59976,16.94,74122.3,4.75,3.81,3.89,0,*77
1495368095.38,59977,16.94,74124.8,4.75,3.93,3.89,0,*75
1495368096.58,59978,16.94,74124.5,4.75,4.15,4.19,0,*7D
1495368097.79,59979,16.94,74124.8,4.75,3.89,3.93,0,*7B
1495368099.0,59980,16.94,74124.3,4.75,4.37,4.49,0,*7F
1495368100.23,59981,16.94,74126.5,4.75,4.53,4.63,0,*74
1495368101.44,59982,16.94,74124.0,4.77,4.31,4.23,0,*75
1495368102.62,59983,16.94,74124.3,4.77,4.33,4.41,0,*72
1495368103.86,59984,16.94,74128.3,4.75,4.05,4.07,0,*70
1495368105.06,59985,16.94,74128.3,4.75,4.49,4.53,0,*78
1495368106.26,59986,16.94,74130.3,4.75,4.27,4.27,0,*70
1495368107.46,59987,16.94,74122.8,4.75,4.27,4.27,0,*71
1495368108.64,59988,16.94,74124.0,4.77,4.41,4.45,0,*78
1495368109.84,59989,16.94,74122.0,4.75,4.27,4.27,0,*7F
1495368111.05,59990,16.94,74120.5,4.75,4.53,4.53,0,*77
1495368112.25,59991,16.94,74122.5,4.77,4.79,4.81,0,*73
1495368113.45,59992,16.94,74118.5,4.77,4.79,4.81,0,*70
1495368114.69,59993,16.94,74126.8,4.75,4.71,4.85,0,*7F
1495368115.9,59994,16.94,74124.8,4.77,4.89,4.93,0,*7A
1495368117.09,59995,16.94,74126.5,4.79,4.49,4.49,0,*7E
1495368118.33,59996,16.94,74124.3,4.81,4.59,4.71,0,*70
1495368119.53,59997,16.94,74124.0,4.79,4.49,4.45,0,*70
1495368120.76,59998,16.94,74122.5,4.79,4.57,4.67,0,*70
1495368121.97,59999,16.94,74128.0,4.79,4.37,4.45,0,*77
1495368123.18,60000,16.94,74126.5,4.79,4.23,4.33,0,*70
1495368124.44,60001,16.94,74122.5,4.79,4.71,4.67,0,*77
1495368125.64,60002,16.94,74126.8,4.79,4.27,4.27,0,*73
1495368126.85,60003,16.94,74124.0,4.79,4.45,4.57,0,*71
1495368128.09,60004,16.94,74132.0,4.81,4.71,4.71,0,*72
1495368129.32,60005,16.94,74128.8,4.81,4.79,4.79,0,*73
1495368130.52,60006,16.94,74126.0,4.79,4.15,4.23,0,*72
1495368131.72,60007,16.94,74126.0,4.79,4.15,4.27,0,*77
1495368132.9,60008,16.94,74132.0,4.85,4.85,4.85,0,*7A
1495368134.08,60009,16.94,74130.3,4.81,4.85,4.85,0,*7F
1495368135.31,60010,16.94,74122.0,4.81,4.71,4.79,0,*7F
1495368136.49,60011,16.94,74126.3,4.81,4.81,4.85,0,*72
1495368137.7,60012,16.94,74120.0,4.85,5.01,5.11,0,*70
1495368138.88,60013,16.94,74122.3,4.85,4.81,4.85,0,*74
1495368140.08,60014,16.94,74130.0,4.85,4.89,4.97,0,*78
1495368141.31,60015,16.94,74130.3,4.85,4.63,4.75,0,*71
1495368142.55,60016,16.94,74128.5,4.87,4.97,5.07,0,*7F
1495368143.76,60017,16.94,74124.0,4.87,4.53,4.53,0,*76
1495368144.99,60018,16.94,74126.8,4.85,4.63,4.71,0,*78
1495368146.22,60019,16.94,74120.8,4.89,4.79,4.79,0,*76
1495368147.41,60020,16.94,74124.5,4.89,4.79,4.85,0,*7F
1495368148.65,60021,16.94,74130.5,4.91,4.89,4.93,0,*7F
1495368149.88,60022,16.94,74122.3,4.89,4.67,4.75,0,*7D
1495368151.1,60023,16.94,74122.3,4.89,4.67,4.67,0,*7F
1495368152.31,60024,16.94,74124.3,4.89,4.89,4.93,0,*73
1495368153.48,60025,16.94,74126.8,4.89,4.85,4.85,0,*79
1495368154.71,60026,16.94,74122.8,4.89,5.05,5.05,0,*7A
1495368155.93,60027,16.94,74118.5,4.91,4.81,4.93,0,*71
1495368157.16,60028,16.94,74118.5,4.89,5.05,5.05,0,*74
1495368158.36,60029,16.94,74120.3,4.91,4.89,4.85,0,*70
1495368159.6,60030,16.94,74120.8,4.93,4.97,5.07,0,*7E
1495368160.86,60031,16.94,74116.8,4.93,4.67,4.67,0,*77
1495368162.09,60032,16.94,74130.5,4.91,4.79,4.81,0,*71
1495368163.3,60033,16.94,74128.8,4.91,4.37,4.37,0,*77
1495368164.5,60034,16.94,74130.8,4.89,4.53,4.63,0,*7A
1495368165.73,60035,16.94,74134.5,4.91,4.81,4.93,0,*72
1495368166.94,60036,16.94,74130.0,4.91,4.37,4.37,0,*72
1495368168.14,60037,16.94,74134.8,4.91,4.33,4.37,0,*77
1495368169.35,60038,16.94,74128.3,4.91,4.57,4.57,0,*7C
1495368170.6,60039,16.94,74130.0,4.91,4.93,4.97,0,*79
1495368171.84,60040,16.94,74130.3,4.93,4.93,4.89,0,*7A
1495368173.06,60041,16.94,74134.5,4.91,4.57,4.67,0,*71
1495368174.31,60042,16.94,74132.5,4.91,4.79,4.79,0,*71
1495368175.57,60043,16.94,74132.3,4.91,4.59,4.71,0,*7A
1495368176.78,60044,16.94,74138.3,4.93,4.81,4.81,0,*75
1495368178.01,60045,16.94,74132.8,4.93,4.71,4.81,0,*7B
1495368179.28,60046,16.94,74126.0,4.93,4.71,4.67,0,*70
1495368180.49,60047,16.94,74130.8,4.93,4.37,4.45,0,*73
1495368181.74,60048,16.94,74134.3,4.93,5.05,5.07,0,*7B
1495368182.94,60049,16.94,74130.5,4.93,5.37,5.37,0,*78
1495368184.18,60050,16.94,74128.8,4.95,4.93,4.75,0,*7E
1495368185.39,60051,16.94,74128.8,4.95,4.97,5.07,0,*7F
1495368186.61,60052,16.94,74132.3,4.93,5.15,5.19,0,*7E
1495368187.8,60053,16.94,74130.5,4.97,5.41,5.45,0,*73
1495368189.0,60054,16.94,74128.3,4.97,5.33,5.41,0,*75
1495368190.2,60055,16.94,74132.5,4.97,5.33,5.41,0,*74
1495368191.41,60056,16.94,74128.0,4.97,5.11,5.11,0,*72
1495368192.59,60057,16.94,74126.5,4.99,5.37,5.45,0,*78
1495368193.82,60058,16.94,74128.8,4.97,5.41,5.51,0,*7D
1495368195.02,60059,16.94,74130.8,4.99,5.23,5.27,0,*77
1495368196.23,60060,16.94,74134.0,4.99,4.89,4.97,0,*76
1495368197.41,60061,16.94,74134.0,4.99,5.33,5.49,0,*75
1495368198.59,60062,16.94,74130.5,4.99,5.37,5.37,0,*7B
1495368199.82,60063,16.94,74128.5,5.03,5.01,5.05,0,*7C
1495368201.02,60064,16.94,74134.5,5.01,5.37,5.41,0,*7C
1495368202.24,60065,16.94,74130.3,5.01,5.27,5.37,0,*7D
1495368203.46,60066,16.94,74136.0,5.03,5.51,5.51,0,*7D
1495368204.64,60067,16.94,74132.0,5.03,5.41,5.41,0,*7C
1495368205.82,60068,16.94,74130.3,5.03,5.19,5.29,0,*70
1495368206.99,60069,16.94,74132.0,5.03,5.29,5.37,0,*7D
1495368208.2,60070,16.94,74130.3,5.03,5.19,5.27,0,*77
1495368209.4,60071,16.94,74132.8,5.03,5.37,5.51,0,*7B
1495368210.6,60072,16.94,74130.3,5.09,5.29,5.23,0,*78
1495368211.8,60073,16.94,74132.0,5.07,5.45,5.55,0,*7C
1495368213.0,60074,16.94,74134.8,5.07,5.41,5.51,0,*7B
1495368214.19,60075,16.94,74132.3,5.11,5.27,5.33,0,*79
1495368215.41,60076,16.94,74130.0,5.09,5.55,5.63,0,*73
1495368216.62,60077,16.94,74128.8,5.09,5.07,5.19,0,*78
1495368217.8,60078,16.94,74128.8,5.11,5.15,5.23,0,*74
1495368218.98,60079,16.94,74130.8,5.11,5.33,5.45,0,*71
1495368220.22,60080,16.94,74132.8,5.13,5.27,5.27,0,*74
1495368221.41,60081,16.94,74126.5,5.13,4.89,4.89,0,*75
1495368222.59,60082,16.94,74124.0,5.11,5.33,5.45,0,*75
1495368223.81,60083,16.94,74122.8,5.13,5.51,5.63,0,*76
1495368225.0,60084,16.94,74126.0,5.13,5.41,5.49,0,*78
1495368226.19,60085,16.94,74130.0,5.13,5.29,5.37,0,*7E
1495368227.41,60086,16.94,74134.5,5.13,5.27,5.29,0,*7C
1495368228.65,60087,16.94,74132.5,5.13,5.73,5.73,0,*73
1495368229.84,60088,16.94,74132.5,5.15,5.19,5.19,0,*7A
1495368231.05,60089,16.94,74134.0,5.15,5.05,5.11,0,*7E
1495368232.28,60090,16.94,74134.5,5.13,5.05,5.19,0,*78
1495368233.49,60091,16.94,74132.5,5.17,5.67,5.67,0,*70
1495368234.67,60092,16.94,74138.8,5.15,5.59,5.63,0,*78
1495368235.84,60093,16.94,74128.5,5.15,5.15,5.29,0,*7F
1495368237.08,60094,16.94,74132.5,5.17,5.55,5.73,0,*71
1495368238.28,60095,16.94,74120.8,5.17,5.33,5.41,0,*71
1495368239.53,60096,16.94,74126.3,5.17,4.93,5.05,0,*79
1495368240.73,60097,16.94,74130.0,5.15,5.27,5.29,0,*7A
1495368241.92,60098,16.94,74132.3,5.17,5.29,5.41,0,*77
1495368243.14,60099,16.94,74134.3,5.17,5.55,5.67,0,*79
1495368244.41,60100,16.94,74128.3,5.17,4.71,4.71,0,*79
1495368245.62,60101,16.94,74134.0,5.15,5.05,5.15,0,*7B
1495368246.82,60102,16.94,74132.8,5.17,5.07,5.19,0,*74
1495368248.02,60103,16.94,74136.0,5.17,4.45,4.49,0,*76
1495368249.2,60104,16.94,74132.5,5.15,5.19,5.29,0,*7C
1495368250.37,60105,16.94,74132.5,5.15,5.29,5.29,0,*7E
1495368251.57,60106,16.94,74138.5,5.17,5.07,5.07,0,*7F
1495368252.75,60107,16.94,74136.3,5.19,5.41,5.45,0,*74
1495368253.94,60108,16.94,74132.3,5.19,5.45,5.55,0,*7E
1495368255.12,60109,16.94,74128.8,5.19,5.15,5.15,0,*7E
1495368256.29,60110,16.94,74128.3,5.19,5.41,5.45,0,*72
1495368257.52,60111,16.94,74128.0,5.21,5.71,5.81,0,*73
1495368258.74,60112,16.94,74132.5,5.21,5.67,5.77,0,*7E
1495368259.92,60113,16.94,74132.5,5.21,5.45,5.49,0,*72
1495368261.13,60114,16.94,74134.8,5.21,5.23,5.23,0,*79
1495368262.33,60115,16.94,74132.0,5.21,5.59,5.59,0,*78
1495368263.55,60116,16.94,74128.8,5.21,5.45,5.55,0,*7A
1495368264.72,60117,16.94,74130.5,5.23,5.33,5.33,0,*78
1495368265.96,60118,16.94,74128.0,5.23,5.01,5.01,0,*77
1495368267.16,60119,16.94,74134.0,5.25,5.59,5.73,0,*78
1495368268.34,60120,16.94,74132.8,5.23,5.59,5.59,0,*7C
1495368269.54,60121,16.94,74128.0,5.25,5.93,5.95,0,*7D
1495368270.73,60122,16.94,74128.8,5.23,5.11,5.07,0,*79
1495368271.93,60123,16.94,74130.3,5.25,5.41,5.51,0,*78
1495368273.11,60124,16.94,74132.8,5.23,5.63,5.71,0,*7B
1495368274.3,60125,16.94,74132.3,5.25,5.59,5.73,0,*77
1495368275.51,60126,16.94,74132.0,5.25,5.23,5.27,0,*78
1495368276.69,60127,16.94,74130.3,5.29,5.19,5.07,0,*7E
1495368277.92,60128,16.94,74128.0,5.29,4.75,4.75,0,*7E
1495368279.1,60129,16.94,74126.8,5.25,5.15,5.29,0,*7C
1495368280.27,60130,16.94,74130.3,5.25,5.37,5.41,0,*7A
1495368281.44,60131,16.94,74128.5,5.25,5.37,5.37,0,*7A
1495368282.62,60132,16.94,74126.5,5.25,5.37,5.29,0,*76
1495368283.79,60133,16.94,74124.3,5.25,5.37,5.37,0,*78
1495368284.99,60134,16.94,74126.0,5.29,5.19,5.27,0,*7E
1495368286.19,60135,16.94,74126.0,5.31,5.45,5.63,0,*7F
1495368287.39,60136,16.94,74130.3,5.29,5.19,5.27,0,*7C
1495368288.56,60137,16.94,74134.5,5.29,5.45,5.45,0,*70
1495368289.73,60138,16.94,74132.8,5.29,5.45,5.63,0,*7B
1495368290.92,60139,16.94,74134.3,5.29,5.51,5.63,0,*7F
1495368292.14,60140,16.94,74132.3,5.29,5.27,5.27,0,*70
1495368293.34,60141,16.94,74134.5,5.29,5.55,5.67,0,*70
1495368294.56,60142,16.94,74136.8,5.31,5.55,5.67,0,*7A
1495368295.82,60143,16.94,74134.8,5.31,5.05,5.05,0,*7A
1495368297.03,60144,16.94,74138.5,5.31,5.19,5.33,0,*75
1495368298.25,60145,16.94,74134.5,5.31,5.67,5.73,0,*79
1495368299.48,60146,16.94,74132.0,5.31,5.67,5.73,0,*7A
1495368300.64,60147,16.94,74130.5,5.33,5.29,5.37,0,*73
1495368301.84,60148,16.94,74128.3,5.33,5.67,5.77,0,*72
1495368303.02,60149,16.94,74126.0,5.33,5.59,5.71,0,*78
1495368304.24,60150,16.94,74128.8,5.35,5.67,5.77,0,*7D
1495368305.47,60151,16.94,74130.3,5.33,5.89,5.89,0,*7B
1495368306.72,60152,16.94,74124.0,5.35,5.81,5.89,0,*76
1495368307.92,60153,16.94,74126.8,5.35,5.29,5.33,0,*74
1495368309.1,60154,16.94,74124.5,5.33,5.49,5.59,0,*7F
1495368310.35,60155,16.94,74128.5,5.35,5.81,5.89,0,*71
1495368311.56,60156,16.94,74126.3,5.35,5.67,5.67,0,*7A
1495368312.79,60157,16.94,74126.5,5.37,4.79,4.79,0,*79
1495368314.05,60158,16.94,74124.3,5.35,4.97,5.01,0,*7A
1495368315.26,60159,16.94,74124.3,5.35,5.37,5.37,0,*75
1495368316.45,60160,16.94,74126.8,5.35,5.29,5.29,0,*7F
1495368317.66,60161,16.94,74124.8,5.35,5.11,5.23,0,*7F
1495368318.84,60162,16.94,74128.0,5.37,5.41,5.41,0,*7F
1495368320.03,60163,16.94,74128.3,5.37,5.23,5.23,0,*7E
1495368321.23,60164,16.94,74130.5,5.35,5.23,5.33,0,*7A
1495368322.44,60165,16.94,74130.5,5.35,5.49,5.59,0,*7B
1495368323.67,60166,16.94,74128.0,5.37,4.67,4.63,0,*7F
1495368324.91,60167,16.94,74124.3,5.35,5.01,5.11,0,*79
1495368326.12,60168,16.94,74120.3,5.35,5.23,5.23,0,*77
1495368327.36,60169,16.94,74122.8,5.35,4.97,5.11,0,*79
1495368328.62,60170,16.94,74124.8,5.35,4.97,5.01,0,*70
1495368329.84,60171,16.94,74128.0,5.35,5.19,5.23,0,*76
1495368331.06,60172,16.94,74126.3,5.35,5.19,5.23,0,*75
1495368332.26,60173,16.94,74124.5,5.35,4.89,4.89,0,*7D
1495368333.5,60174,16.94,74128.0,5.35,4.97,5.07,0,*72
1495368334.7,60175,16.94,74130.0,5.35,5.37,5.45,0,*7E
1495368335.9,60176,16.94,74138.0,5.35,5.33,5.37,0,*7C
1495368337.1,60177,16.94,74128.8,5.35,5.23,5.29,0,*73
1495368338.32,60178,16.94,74132.5,5.37,5.27,5.27,0,*74
1495368339.59,60179,16.94,74128.3,5.35,5.01,5.01,0,*77
1495368340.79,60180,16.94,74132.0,5.35,5.23,5.37,0,*74
1495368342.01,60181,16.94,74130.0,5.35,5.19,5.19,0,*70
1495368343.19,60182,16.94,74124.8,5.37,5.15,5.23,0,*74
1495368344.37,60183,16.94,74134.8,5.33,5.23,5.23,0,*74
1495368345.57,60184,16.94,74132.8,5.35,5.37,5.37,0,*75
1495368346.77,60185,16.94,74128.3,5.35,5.29,5.29,0,*74
1495368347.98,60186,16.94,74134.0,5.35,5.23,5.23,0,*77
1495368349.16,60187,16.94,74134.8,5.41,5.41,5.49,0,*7D
1495368350.38,60188,16.94,74132.8,5.37,5.51,5.51,0,*7B
1495368351.58,60189,16.94,74132.8,5.37,5.49,5.51,0,*73
1495368352.78,60190,16.94,74130.8,5.37,4.93,4.81,0,*71
1495368354.01,60191,16.94,74126.5,5.37,4.67,4.67,0,*73
1495368355.19,60192,16.94,74130.8,5.37,4.53,4.53,0,*70
1495368356.36,60193,16.94,74128.0,5.41,4.45,4.45,0,*70
1495368357.6,60194,16.94,74132.3,5.37,4.63,4.71,0,*75
1495368358.8,60195,16.94,74126.8,5.41,4.59,4.57,0,*78
1495368359.98,60196,16.94,74128.5,5.37,4.11,4.11,0,*74
1495368361.21,60197,16.94,74128.8,5.41,4.71,4.59,0,*7E
1495368362.39,60198,16.94,74134.5,5.37,4.41,4.41,0,*7A
1495368363.63,60199,16.94,74134.3,5.37,4.71,4.67,0,*7C
1495368364.86,60200,16.94,74134.5,5.37,4.63,4.63,0,*78
1495368366.03,60201,16.94,74130.8,5.41,4.27,4.15,0,*79
1495368367.21,60202,16.94,74126.0,5.41,4.81,4.85,0,*7F
1495368368.38,60203,16.94,74122.5,5.41,4.37,4.27,0,*7B
1495368369.56,60204,16.94,74124.0,5.41,4.37,4.27,0,*7C
1495368370.76,60205,16.94,74124.8,5.41,4.11,4.01,0,*7D
1495368371.93,60206,16.94,74130.3,5.37,4.11,4.11,0,*7E
1495368373.14,60207,16.94,74130.5,5.37,4.23,4.31,0,*7C
1495368374.31,60208,16.94,74130.0,5.37,4.19,4.11,0,*78
1495368375.48,60209,16.94,74130.8,5.37,4.19,4.11,0,*79
1495368376.71,60210,16.94,74124.3,5.37,4.31,4.31,0,*79
1495368377.95,60211,16.94,74124.5,5.37,4.31,4.31,0,*78
1495368379.15,60212,16.94,74130.3,5.37,4.31,4.23,0,*78
1495368380.32,60213,16.94,74128.0,5.37,4.19,4.19,0,*7A
1495368381.53,60214,16.94,74118.8,5.37,4.63,4.57,0,*7A
1495368382.71,60215,16.94,74122.0,5.37,4.45,4.41,0,*78
1495368383.91,60216,16.94,74126.8,5.37,4.07,3.97,0,*71
1495368385.12,60217,16.94,74142.5,5.37,4.41,4.31,0,*79
1495368386.29,60218,16.94,74116.8,5.41,4.37,4.27,0,*71
1495368387.49,60219,16.94,74118.3,5.37,3.63,3.53,0,*73
1495368388.7,60220,16.94,74124.5,5.37,3.89,3.75,0,*79
1495368389.9,60221,16.94,74130.8,5.35,3.93,3.85,0,*7E
1495368391.1,60222,16.94,74124.3,5.35,4.41,4.27,0,*7A
1495368392.31,60223,16.94,74126.0,5.35,4.41,4.37,0,*7A
1495368393.52,60224,16.94,74132.0,5.35,4.37,4.37,0,*7C
1495368394.73,60225,16.94,74132.0,5.35,4.37,4.27,0,*7C
1495368395.98,60226,16.94,74130.0,5.35,4.63,4.63,0,*7E
1495368397.22,60227,16.94,74126.8,5.37,5.01,4.93,0,*77
1495368398.46,60228,16.94,74126.8,5.41,4.71,4.71,0,*73
1495368399.63,60229,16.94,74124.0,5.41,4.49,4.45,0,*7E
1495368400.83,60230,16.94,74124.0,5.37,4.93,4.89,0,*70
1495368402.07,60231,16.94,74126.8,5.37,4.71,4.67,0,*7D
1495368403.26,60232,16.94,74124.5,5.41,4.93,4.81,0,*7B
1495368404.44,60233,16.94,74124.0,5.41,4.57,4.57,0,*79
1495368405.67,60234,16.94,74122.8,5.41,4.97,4.97,0,*7E
1495368406.84,60235,16.94,74126.8,5.41,5.29,5.29,0,*7F
1495368408.02,60236,16.94,74132.0,5.41,5.33,5.33,0,*7C
1495368409.21,60237,16.94,74128.8,5.43,5.41,5.29,0,*71
1495368410.42,60238,16.94,74128.0,5.43,5.07,5.07,0,*70
1495368411.62,60239,16.94,74134.0,5.49,5.33,5.27,0,*7E
1495368412.79,60240,16.94,74134.0,5.49,4.89,4.81,0,*7D
1495368413.99,60241,16.94,74118.3,5.45,4.81,4.79,0,*7F
1495368415.19,60242,16.94,74120.5,5.49,4.63,4.57,0,*70
1495368416.36,60243,16.94,74126.8,5.49,4.53,4.45,0,*71
1495368417.59,60244,16.94,74124.3,5.49,4.75,4.75,0,*71
1495368418.82,60245,16.94,74124.3,5.45,4.75,4.75,0,*7C
1495368419.99,60246,16.94,74130.5,5.49,4.53,4.45,0,*74
1495368421.19,60247,16.94,74124.3,5.49,4.63,4.53,0,*71
1495368422.36,60248,16.94,74126.8,5.49,4.23,4.23,0,*7D
1495368423.56,60249,16.94,74126.5,5.45,4.11,4.01,0,*71
1495368424.78,60250,16.94,74124.3,5.49,4.67,4.63,0,*70
1495368426.01,60251,16.94,74126.3,5.45,4.75,4.67,0,*7A
1495368427.21,60252,16.94,74128.3,5.49,4.07,3.97,0,*78
1495368428.38,60253,16.94,74130.0,5.45,4.41,4.41,0,*7B
1495368429.61,60254,16.94,74126.0,5.45,4.67,4.75,0,*7F
1495368430.78,60255,16.94,74134.5,5.49,4.33,4.23,0,*70
1495368431.98,60256,16.94,74138.0,5.45,4.01,3.85,0,*75
1495368433.16,60257,16.94,74128.8,5.45,3.93,3.81,0,*7C
1495368434.36,60258,16.94,74126.0,5.45,3.97,3.93,0,*74
1495368435.58,60259,16.94,74128.3,5.45,3.37,3.23,0,*74
1495368436.79,60260,16.94,74132.5,5.41,3.19,3.19,0,*7F
1495368438.0,60261,16.94,74138.8,5.41,4.15,4.05,0,*7F
1495368439.22,60262,16.94,74132.5,5.41,4.05,4.01,0,*79
1495368440.42,60263,16.94,74126.8,5.41,3.55,3.33,0,*7C
1495368441.65,60264,16.94,74134.8,5.37,3.41,3.19,0,*77
1495368442.82,60265,16.94,74134.0,5.37,3.59,3.59,0,*7B
1495368444.0,60266,16.94,74126.5,5.37,3.89,3.85,0,*74
1495368445.17,60267,16.94,74124.8,5.37,3.63,3.59,0,*70
1495368446.38,60268,16.94,74134.5,5.37,3.75,3.59,0,*78
1495368447.58,60269,16.94,74138.3,5.35,4.15,4.15,0,*75
1495368448.84,60270,16.94,74136.3,5.35,3.79,3.71,0,*75
1495368450.04,60271,16.94,74134.8,5.33,4.15,3.97,0,*77
1495368451.25,60272,16.94,74136.5,5.33,4.37,4.31,0,*7F
1495368452.46,60273,16.94,74132.3,5.35,4.07,4.07,0,*7E
1495368453.68,60274,16.94,74134.5,5.33,3.49,3.33,0,*72
1495368454.88,60275,16.94,74136.5,5.33,3.71,3.55,0,*78
1495368456.06,60276,16.94,74140.8,5.33,4.15,4.15,0,*7D
1495368457.23,60277,16.94,74140.0,5.33,4.27,4.19,0,*71
1495368458.45,60278,16.94,74140.0,5.33,3.97,4.05,0,*7F
1495368459.63,60279,16.94,74140.3,5.33,4.27,4.07,0,*70
1495368460.83,60280,16.94,74136.0,5.33,3.71,3.59,0,*7E
1495368462.06,60281,16.94,74134.5,5.35,3.71,3.59,0,*79
1495368463.24,60282,16.94,74134.8,5.33,4.15,4.19,0,*7A
1495368464.44,60283,16.94,74128.8,5.33,3.97,3.93,0,*73
1495368465.61,60284,16.94,74132.3,5.33,4.15,4.19,0,*7C
1495368466.79,60285,16.94,74136.3,5.33,4.41,4.41,0,*71
1495368467.97,60286,16.94,74138.5,5.33,4.41,4.41,0,*72
1495368469.14,60287,16.94,74132.5,5.33,4.37,4.27,0,*72
1495368470.31,60288,16.94,74138.3,5.33,4.19,4.27,0,*71
1495368471.49,60289,16.94,74140.5,5.33,4.49,4.37,0,*74
1495368472.69,60290,16.94,74136.8,5.33,4.59,4.53,0,*7F
1495368473.89,60291,16.94,74128.8,5.33,4.07,3.97,0,*7A
1495368475.1,60292,16.94,74128.3,5.35,4.07,4.07,0,*71
1495368476.34,60293,16.94,74128.3,5.35,4.05,3.93,0,*78
1495368477.51,60294,16.94,74132.3,5.33,3.93,3.85,0,*76
1495368478.71,60295,16.94,74128.0,5.33,3.97,3.93,0,*74
1495368479.91,60296,16.94,74136.3,5.33,3.59,3.49,0,*72
1495368481.11,60297,16.94,74140.3,5.33,3.97,3.93,0,*76
1495368482.31,60298,16.94,74124.8,5.29,4.01,3.89,0,*71
1495368483.51,60299,16.94,74130.3,5.31,3.55,3.55,0,*7E
1495368484.71,60300,16.94,74140.8,5.29,3.75,3.63,0,*71
1495368485.92,60301,16.94,74138.5,5.29,4.11,4.05,0,*72
1495368487.15,60302,16.94,74144.0,5.31,4.05,3.93,0,*75
1495368488.41,60303,16.94,74138.5,5.31,3.75,3.67,0,*7F
1495368489.66,60304,16.94,74136.8,5.31,3.75,3.67,0,*78
1495368490.89,60305,16.94,74136.0,5.29,4.05,4.01,0,*77
1495368492.06,60306,16.94,74136.3,5.29,4.27,4.15,0,*71
1495368493.27,60307,16.94,74130.5,5.29,4.15,4.05,0,*70
1495368494.5,60308,16.94,74136.3,5.29,3.75,3.41,0,*79
1495368495.68,60309,16.94,74136.8,5.29,3.93,3.89,0,*74
1495368496.92,60310,16.94,74138.5,5.29,4.05,4.05,0,*77
1495368498.12,60311,16.94,74138.3,5.29,4.01,3.89,0,*71
1495368499.3,60312,16.94,74134.5,5.29,3.89,3.81,0,*7D
1495368500.5,60313,16.94,74132.8,5.29,3.55,3.41,0,*71
1495368501.7,60314,16.94,74134.5,5.25,3.75,3.63,0,*78
1495368502.93,60315,16.94,74138.0,5.29,3.75,3.67,0,*71
1495368504.14,60316,16.94,74142.0,5.25,3.63,3.49,0,*75
1495368505.32,60317,16.94,74136.3,5.25,3.89,3.89,0,*7C
1495368506.52,60318,16.94,74136.8,5.23,3.55,3.33,0,*75
1495368507.72,60319,16.94,74136.8,5.25,3.63,3.49,0,*7A
1495368508.92,60320,16.94,74136.8,5.23,3.67,3.55,0,*7F
1495368510.1,60321,16.94,74140.3,5.23,3.93,3.93,0,*7F
1495368511.33,60322,16.94,74140.5,5.23,3.23,3.03,0,*7E
1495368512.56,60323,16.94,74142.8,5.21,3.85,3.75,0,*70
1495368513.76,60324,16.94,74144.8,5.21,3.93,3.81,0,*7B
1495368514.98,60325,16.94,74142.8,5.21,3.85,3.75,0,*76
1495368516.21,60326,16.94,74142.5,5.21,3.11,2.95,0,*77
1495368517.46,60327,16.94,74142.3,5.21,3.11,3.03,0,*78
1495368518.64,60328,16.94,74138.5,5.19,2.99,2.91,0,*77
1495368519.83,60329,16.94,74136.3,5.21,3.59,3.55,0,*79
1495368521.06,60330,16.94,74136.5,5.19,3.45,3.33,0,*77
1495368522.26,60331,16.94,74136.3,5.17,2.99,2.95,0,*75
1495368523.47,60332,16.94,74132.5,5.15,3.25,3.15,0,*7B
1495368524.65,60333,16.94,74130.5,5.15,3.29,3.25,0,*75
1495368525.88,60334,16.94,74128.3,5.15,3.19,3.15,0,*72
1495368527.08,60335,16.94,74130.0,5.15,3.37,3.25,0,*7C